Regional Weather Roundup
Issued by NWS

Home | Current Version | Previous Version | Graphics & Text | Print | Product List | Glossary On
Versions: 1 2 3 4 5 6 7 8 9 10 11 12 13 14 15 16 17 18 19 20 21 22 23 24 25 26 27 28 29 30 31 32 33 34 35 36 37 38 39 40 41 42 43 44 45 46 47 48 49 50
000
ASUS45 KBOI 022110
RWRID

IDAHO REGIONAL WEATHER ROUNDUP
NATIONAL WEATHER SERVICE BOISE ID
300 PM MDT THU JUL 02 2015

NOTE: "FAIR" INDICATES FEW OR NO CLOUDS BELOW 12000 FEET
WITH NO SIGNIFICANT WEATHER AND/OR OBSTRUCTIONS TO VISIBILITY

IDZ012-014-022200-
SOUTHWEST IDAHO


CITY           SKY/WX    TMP DP  RH WIND       PRES   REMARKS
BOISE          FAIR     100  41  13 NW12      29.96F HX  95
CALDWELL       FAIR      99  45  15 N5        29.95F HX  94
MOUNTAIN HOME  FAIR     103  35   9 N9G20     29.95F HX  96
$$

IDZ016-017-022200-
SOUTHCENTRAL IDAHO


CITY           SKY/WX    TMP DP  RH WIND       PRES   REMARKS
BURLEY         FAIR      92  44  19 VRB3      30.05F
JEROME         FAIR      94  43  17 SW9       30.05F HX  90
TWIN FALLS     FAIR     100  33   9 NW12      30.04F HX  94
$$

IDZ019>023-022200-
SOUTHEAST IDAHO


CITY           SKY/WX    TMP DP  RH WIND       PRES   REMARKS
IDAHO FALLS    SUNNY     90  45  21 W3        30.10F
POCATELLO      MOSUNNY   93  43  17 CALM      30.08F
REXBURG        SUNNY     90  43  19 S8        30.10F
$$

IDZ006-010-011-018-031-032-022200-
CENTRAL IDAHO MOUNTAINS


CITY           SKY/WX    TMP DP  RH WIND       PRES   REMARKS
MCCALL         FAIR      90  38  16 N8        30.12F
HAILEY         MOSUNNY   90  46  22 SE7       30.13F
STANLEY          N/A     86  34  15 VRB7      30.24F
SALMON         FAIR      90  45  20 NW6       30.01F
CHALLIS        FAIR      93  28  10 SE8       30.09F
$$

IDZ002-004-006-007-026-022200-
NORTHERN IDAHO


CITY           SKY/WX    TMP DP  RH WIND       PRES   REMARKS
LEWISTON       FAIR     100  41  13 NE10      29.92F HX  95
LOWELL           N/A    102  39  11 CALM      29.90F HX  97
COEUR D`ALENE  FAIR      93  46  20 W5        29.98F
MULLAN PASS    FAIR      78  41  26 NW6       30.25F
$$


USA.gov is the U.S. government's official web portal to all federal, state and local government web resources and services.